Pendleton, OR

12:16 AM PDT on October 01, 2016 (GMT -0700)
Eastern Oreg Regional At Pendleton

Weather History for KPDT - March, 2013

Change the Weather History Date:

Wednesday, March 6, 2013

  Actual Average Record
Temperature  
Mean Temperature 42 °F 43 °F  
Max Temperature 48 °F 52 °F 68 °F (1979)
Min Temperature 35 °F 33 °F 19 °F (1943)
Degree Days  
Heating Degree Days 23 22  
Month to date heating degree days 133 138  
Since 1 July heating degree days 3866 4037  
Cooling Degree Days 0 0  
Month to date cooling degree days 0 0  
Year to date cooling degree days 0 0  
Moisture  
Dew Point 37 °F    
Average Humidity 87    
Maximum Humidity 100    
Minimum Humidity 73    
Precipitation  
Precipitation 0.12 in 0.04 in 0.50 in (2000)
Month to date precipitation 0.20 0.27  
Year to date precipitation 1.57 2.81  
Snow  
Snow 0.00 in 0.10 in 1.00 in (2000)
Month to date snowfall 0.0 0.3  
Year to date snowfall 0.1 7.3  
Since 1 July snowfall 1.9 14.8  
Snow Depth 0.00 in    
Sea Level Pressure  
Sea Level Pressure 29.69 in    
Wind  
Wind Speed 10 mph (West)    
Max Wind Speed 28 mph    
Max Gust Speed 32 mph    
Visibility 8 miles    
Events Rain    
T = Trace of Precipitation, MM = Missing Value Source: NWS Daily Summary

Daily Weather History Graph

Daily Weather History Graph

Search for Another Location

Airport or City:

Trip Planner

Search our weather history database for the weather conditions in past years. The results will help you decide how hot, cold, wet, or windy it might be!

Date:

Astronomy

Mar. 06, 2013 Rise Set
Actual Time 6:24 AM PST 5:49 PM PST
Civil Twilight 5:54 AM PST 6:19 PM PST
Nautical Twilight 5:20 AM PST 6:53 PM PST
Astronomical Twilight 4:45 AM PST 7:28 PM PST
Moon 2:50 AM PST (3/6) 12:24 PM PST (3/6)
Length of Visible Light 12h 24m
Length of Day
11h 25m
Waning Crescent, 29% of the Moon is Illuminated
Mar 6
Waning Crescent
Mar 11
New
Mar 19
First Quarter
Mar 27
Full
Apr 2
Last Quarter

Hourly Weather History & Observations

Time (PST) Temp. Windchill Dew Point Humidity Pressure Visibility Wind Dir Wind Speed Gust Speed Precip Events Conditions
12:53 AM 37.0 °F 33.3 °F 36.0 °F 96% 29.73 in 9.0 mi South 4.6 mph - 0.01 in Rain Light Rain
1:01 AM 37.0 °F - 36.0 °F 96% 29.71 in 8.0 mi Calm Calm - 0.00 in Rain Light Rain
1:22 AM 36.0 °F 32.1 °F 35.1 °F 97% 29.71 in 6.0 mi North 4.6 mph - 0.01 in   Overcast
1:51 AM 35.6 °F 31.7 °F 35.6 °F 100% 29.71 in 6.0 mi Variable 4.6 mph - 0.01 in   Overcast
1:53 AM 36.0 °F 29.6 °F 35.1 °F 97% 29.70 in 6.0 mi WSW 8.1 mph - 0.01 in   Overcast
2:53 AM 36.0 °F 33.3 °F 35.1 °F 97% 29.68 in 6.0 mi SSE 3.5 mph - 0.00 in Rain Light Rain
3:01 AM 36.0 °F 31.1 °F 35.1 °F 97% 29.67 in 6.0 mi ESE 5.8 mph - 0.00 in Rain Light Rain
3:08 AM 36.0 °F 32.1 °F 35.1 °F 97% 29.67 in 6.0 mi East 4.6 mph - 0.00 in   Overcast
3:53 AM 35.1 °F 27.4 °F 35.1 °F 100% 29.64 in 7.0 mi East 10.4 mph - 0.00 in   Overcast
4:53 AM 36.0 °F 28.0 °F 35.1 °F 97% 29.61 in 6.0 mi ENE 11.5 mph - 0.00 in Rain Light Rain
5:53 AM 35.1 °F 28.6 °F 35.1 °F 100% 29.58 in 8.0 mi East 8.1 mph - 0.00 in   Overcast
6:53 AM 37.0 °F 31.6 °F 35.1 °F 93% 29.57 in 10.0 mi SE 6.9 mph - N/A   Scattered Clouds
7:53 AM 36.0 °F - 36.0 °F 100% 29.56 in 6.0 mi Calm Calm - N/A   Overcast
8:53 AM 43.0 °F 38.8 °F 41.0 °F 93% 29.53 in 10.0 mi SSE 6.9 mph - N/A   Mostly Cloudy
9:53 AM 48.0 °F - 43.0 °F 83% 29.53 in 10.0 mi West 11.5 mph - N/A   Partly Cloudy
10:53 AM 39.0 °F 31.4 °F 37.9 °F 96% 29.58 in 5.0 mi NW 12.7 mph - 0.00 in   Overcast
11:53 AM 46.0 °F 41.0 °F 41.0 °F 83% 29.58 in 10.0 mi WNW 10.4 mph 20.7 mph N/A   Scattered Clouds
12:01 PM 44.1 °F 37.4 °F 41.0 °F 89% 29.57 in 10.0 mi WNW 13.8 mph 20.7 mph N/A   Mostly Cloudy
12:53 PM 44.1 °F 37.4 °F 39.9 °F 85% 29.61 in 10.0 mi West 13.8 mph - 0.00 in   Overcast
1:10 PM 42.1 °F 32.3 °F 39.9 °F 92% 29.63 in 10.0 mi WNW 24.2 mph - N/A   Overcast
1:19 PM 39.9 °F 31.1 °F 39.0 °F 97% 29.64 in 9.0 mi WNW 17.3 mph 31.1 mph 0.00 in Rain Light Rain
1:41 PM 39.9 °F 31.4 °F 39.0 °F 97% 29.63 in 7.0 mi NW 16.1 mph - 0.02 in Rain Light Rain
1:53 PM 39.9 °F 31.8 °F 39.0 °F 97% 29.65 in 8.0 mi NW 15.0 mph - 0.02 in Rain Light Rain
2:00 PM 39.0 °F 31.0 °F 37.9 °F 96% 29.64 in 9.0 mi NW 13.8 mph - 0.00 in Rain Light Rain
2:15 PM 39.0 °F 31.8 °F 37.9 °F 96% 29.65 in 2.5 mi WNW 11.5 mph - 0.05 in Rain Light Rain
2:22 PM 39.0 °F 32.8 °F 37.9 °F 96% 29.65 in 3.0 mi WNW 9.2 mph - 0.05 in Rain Light Rain
2:53 PM 39.0 °F 36.8 °F 39.0 °F 100% 29.68 in 3.0 mi NNW 3.5 mph - 0.07 in Rain Light Rain
3:53 PM 42.1 °F 32.1 °F 37.9 °F 85% 29.70 in 10.0 mi West 25.3 mph 32.2 mph 0.00 in Rain Light Rain
4:53 PM 39.9 °F 32.9 °F 37.9 °F 93% 29.75 in 10.0 mi West 11.5 mph - 0.00 in Rain Light Rain
5:03 PM 39.9 °F 33.4 °F 37.9 °F 93% 29.75 in 8.0 mi West 10.4 mph - 0.00 in Rain Light Rain
5:44 PM 39.9 °F 32.5 °F 37.0 °F 89% 29.77 in 10.0 mi West 12.7 mph - 0.01 in Rain Light Rain
5:53 PM 41.0 °F 33.1 °F 37.0 °F 86% 29.78 in 10.0 mi WSW 15.0 mph - 0.01 in   Overcast
6:53 PM 41.0 °F 34.3 °F 35.1 °F 79% 29.81 in 10.0 mi West 11.5 mph - 0.00 in Rain Light Rain
7:53 PM 41.0 °F 32.8 °F 34.0 °F 76% 29.83 in 10.0 mi West 16.1 mph 24.2 mph 0.00 in Rain Light Rain
8:53 PM 39.9 °F 35.8 °F 35.1 °F 83% 29.86 in 10.0 mi WNW 5.8 mph - 0.00 in Rain Light Rain
9:53 PM 39.9 °F 36.7 °F 35.1 °F 83% 29.88 in 10.0 mi SSW 4.6 mph - 0.00 in   Overcast
10:53 PM 41.0 °F 35.8 °F 34.0 °F 76% 29.91 in 10.0 mi South 8.1 mph - 0.00 in   Overcast
11:53 PM 39.9 °F 33.9 °F 30.9 °F 70% 29.91 in 10.0 mi SW 9.2 mph - N/A   Scattered Clouds